San Antonio, Texas, United States (78266)
Lat: 29.42N, Lon: 98.49W
Wx Zone: TXZ206
Local Info
Past Weather Observations for Today

NOTE: This archive is for the closest National Weather Service station to San Antonio. Information may differ from the station used for current weather conditions.

Time Weather Temperature Dewpoint Humidity Pressure Winds Precip Visibility
18:58
Clear
79°F / 26°C 63°F / 17°C 58% 29.77 in
(1008 mb)
SSE 19.6 mph
(SSE 32 kph)
- 10SM
17:58
Partly Cloudy
84°F / 29°C 61°F / 16°C 45% 29.77 in
(1008 mb)
SE 15 mph
(SE 24 kph)
- 10SM
16:58
Clear
88°F / 31°C 61°F / 16°C 40% 29.77 in
(1008 mb)
SSE 17.3 mph
(SSE 28 kph)
- 10SM
15:58
Partly Cloudy
88°F / 31°C 61°F / 16°C 40% 29.77 in
(1008 mb)
SE 18.4 mph
(SE 30 kph)
- 10SM
14:58
Partly Cloudy
86°F / 30°C 63°F / 17°C 46% 29.8 in
(1009 mb)
SE 16.1 mph
(SE 26 kph)
- 10SM
13:58
Partly Cloudy
86°F / 30°C 63°F / 17°C 46% 29.83 in
(1010 mb)
SSE 15 mph
(SSE 24 kph)
- 10SM
12:58
Partly Cloudy
84°F / 29°C 64°F / 18°C 51% 29.89 in
(1012 mb)
S 12.7 mph
(S 20 kph)
- 10SM
11:58
Partly Cloudy
84°F / 29°C 64°F / 18°C 51% 29.89 in
(1012 mb)
SE 13.8 mph
(SE 22 kph)
- 10SM
11:28
Clear
84°F / 29°C 63°F / 17°C 48% 29.92 in
(1013 mb)
S 17.3 mph
(S 28 kph)
- 10SM
11:26
Clear
84°F / 29°C 63°F / 17°C 48% 29.92 in
(1013 mb)
SE 12.7 mph
(SE 20 kph)
- 10SM
10:58
Clear
82°F / 28°C 63°F / 17°C 51% 29.92 in
(1013 mb)
SE 12.7 mph
(SE 20 kph)
- 10SM
09:58
Clear
79°F / 26°C 64°F / 18°C 61% 29.95 in
(1014 mb)
SE 9.2 mph
(SE 15 kph)
- 10SM
08:58
Clear
73°F / 23°C 64°F / 18°C 74% 29.95 in
(1014 mb)
SE 8.1 mph
(SE 13 kph)
- 10SM
08:49
Partly Cloudy
73°F / 23°C 64°F / 18°C 74% 29.95 in
(1014 mb)
S 9.2 mph
(S 15 kph)
- 10SM
08:44
Partly Cloudy
72°F / 22°C 64°F / 18°C 78% 29.95 in
(1014 mb)
SSE 8.1 mph
(SSE 13 kph)
- 10SM
08:28
Partly Cloudy
70°F / 21°C 64°F / 18°C 83% 29.95 in
(1014 mb)
SSE 4.6 mph
(SSE 7 kph)
- 10SM
08:18
Mostly Cloudy
68°F / 20°C 64°F / 18°C 88% 29.95 in
(1014 mb)
Variable 2.3 mph
(Variable 4 kph)
- 10SM
08:15
Partly Cloudy
68°F / 20°C 64°F / 18°C 88% 29.95 in
(1014 mb)
Variable 4.6 mph
(Variable 7 kph)
- 10SM
08:01
Partly Cloudy
Fog And Mist
66°F / 19°C 64°F / 18°C 94% 29.95 in
(1014 mb)
ESE 6.9 mph
(ESE 11 kph)
- 7SM
07:58
Mostly Cloudy
Fog And Mist
66°F / 19°C 64°F / 18°C 94% 29.95 in
(1014 mb)
ESE 6.9 mph
(ESE 11 kph)
- 2SM
07:54
Mostly Cloudy
Fog And Mist
66°F / 19°C 64°F / 18°C 94% 29.95 in
(1014 mb)
ESE 6.9 mph
(ESE 11 kph)
- 1SM
07:46
Mostly Cloudy
Fog
66°F / 19°C 64°F / 18°C 94% 29.95 in
(1014 mb)
E 5.8 mph
(E 9 kph)
- 1/2SM
07:22
Overcast
Fog
64°F / 18°C 63°F / 17°C 94% 29.95 in
(1014 mb)
E 4.6 mph
(E 7 kph)
- 1/4SM
06:58
Overcast
Fog And Mist
61°F / 16°C 57°F / 14°C 88% 29.95 in
(1014 mb)
N 2.3 mph
(N 4 kph)
- 6SM
06:47
Mostly Cloudy
Fog And Mist
61°F / 16°C 57°F / 14°C 88% 29.95 in
(1014 mb)
Calm - 5SM
06:41
Partly Cloudy
61°F / 16°C 57°F / 14°C 88% 29.95 in
(1014 mb)
N 1.2 mph
(N 2 kph)
- 10SM
06:37
Partly Cloudy
61°F / 16°C 57°F / 14°C 88% 29.95 in
(1014 mb)
N 2.3 mph
(N 4 kph)
- 7SM
05:58
Partly Cloudy
61°F / 16°C 57°F / 14°C 88% 29.95 in
(1014 mb)
NNW 3.5 mph
(NNW 6 kph)
- 10SM
04:58
Clear
61°F / 16°C 57°F / 14°C 88% 29.92 in
(1013 mb)
NNE 2.3 mph
(NNE 4 kph)
- 10SM
03:58
Clear
61°F / 16°C 55°F / 13°C 83% 29.92 in
(1013 mb)
NNE 1.2 mph
(NNE 2 kph)
- 10SM
02:58
Clear
63°F / 17°C 57°F / 14°C 83% 29.95 in
(1014 mb)
Calm - 10SM
01:58
Clear
63°F / 17°C 57°F / 14°C 83% 29.95 in
(1014 mb)
Calm - 10SM
00:58
Clear
66°F / 19°C 59°F / 15°C 78% 29.95 in
(1014 mb)
Calm - 10SM
Time Weather Temperature Dewpoint Humidity Pressure Winds Precip Visibility


Weather for websites

WeatherForYou.com, LLC is not responsible for any damages or problems caused by this service. Current weather conditions are obtained from the closest station including government and personal stations which may have varying degrees of accuracy. Weather forecasts are derived from the NOAA NDFD. Like all things, this site belongs to Jesus Christ... He just trusts me to maintain it. If you have any questions or comments email webmaster@weatherforyou.com

Copyright © 2014, WeatherForYou.com LLC. All rights reserved.